Location: Heidgraben
(53.7081°N, 9.6576°E)
Time: 04:34:19
(UTC+00:00)

Cosmos 1825 - Pass Details

Date: 05 July 2020
Orbit: 502 x 508 km, 82.5° (Epoch: 06 August)

Event Time Altitude Azimuth Distance (km) Brightness Sun altitude
Exits shadow 23:32:48 10° 235° (SW) 1,736 4.5 -13.6°
Reaches altitude 10° 23:32:49 10° 235° (SW) 1,728 4.5 -13.6°
Maximum altitude 23:36:01 25° 292° (WNW) 1,057 4.0 -13.6°
Drops below altitude 10° 23:39:14 10° 350° (N) 1,741 6.2 -13.6°
Sets 23:41:39 0° 4° (N) 2,633 7.9 -13.6°
